STARLINK-31873, 59790

Orbit data source: Space-Track

STARLINK-31873, 59790 is a payload satellite owned by SpaceX/Seattle (US) in LEO that was launched on Sat, 18 May 2024 UTC via an FALCON 9 launch vehicle from the Air Force Eastern Test Range (AFETR). Payload-class satellites include a variety of spacecraft equipped with specific instruments for various scientific and technological missions. These include communications satellites like Starlink; space stations such as the ISS; scientific satellites like the Hubble; Earth observation satellites from companies like Planet Labs, Umbra, and HawkEye 360; GPS; miniature CubeSats for education and research; and military/defense satellites.

Loading next visibility...
Identifier
59790, 2024-093J
Orbit
LEO
Country
Flag of USUS
Related business
Manufacturer
SpaceX/Seattle
Mission
Operational spacecraft
Bus & Motor
STARLINK V2M, Unknown motor
Mass
730 kg wet, ~700 kg dry
Launch date (UTC)
2024-05-18 (1 year ago)
Launch vehicle
FALCON 9
Launch site
Air Force Eastern Test Range (AFETR)
Object type
Payload
Rocket body
Debris
Shape & HBR
Unknown
Radar Cross Section
Large (>1 m²)

Expand to show TLE details & history
Last TLE update: 2 days ago

TLE from 2 days ago
0 STARLINK-31873
1 59790U 24093J   25259.86971325 -.00002114  00000-0 -67384-4 0  9994
2 59790  43.0019 110.3873 0000386 250.7725 109.3085 15.27559559 76111
Epoch: 2025-09-16T20:52Z
TLE epoch observation values (Epoch: 2025-09-16T20:52:23.224Z)
Latitude
-0.00003°
Longitude
161.23668°
Altitude
482.973 km
Speed
7.626 km/s
True Right ascension
07h 21m 32s
True Declination
0° 00' 00"
Sunlit
Object was in daylight at epoch
Visualization orbit readout
Latitude
Unknown
Longitude
Unknown
Altitude
Unknown
Speed
Unknown
Apparent Right ascension
Unknown
Apparent Declination
Unknown
Sunlit
N/A
Visualization observer readout
Local Sidereal Time
04:32:42
Azimuth
Unknown
Elevation
Unknown
Doppler factor
Unknown
Orbital elements
Apogee altitude
485.32 km
Perigee altitude
484.79 km
Semi-major axis
6,863.192 km
Eccentricity
0.00004
Inclination
43.0019°
RAAN
110.3873°
Arg. of periapsis
250.7725°
True anomaly
109.31267°
Mean anomaly
109.3085°
Eccentric anomaly
109.31059°
Mean motion
3.81728 °/min
Orbital period
94.31 mins
BSTAR
-0.000067384
Loading maneuver chart data...
Computing Atmospheric mass density...
Loading historical data...
Loading historical data...
Loading historical data...
Loading historical data...
Loading historical data...
Loading historical data...
Loading historical data...

Documentation

Showing up to 5 results
|